{"data":{"norad_id":32711,"intl_designator":"2008-012A","name":"GPS BIIRM-6 (PRN 07)","alt_names":[],"object_type":"PAYLOAD","status":"ACTIVE","operator":null,"country":"US","launch_date":"2008-03-15","launch_site_code":"AFETR","launch_vehicle":null,"mission":null,"orbit_class":"UNKNOWN","rcs_meters":5.0119,"size_class":null,"mass_kg":null,"dimensions":null,"purposes":["nav"],"wikipedia_slug":null,"has_3d_model":false,"image_url":null,"decayed_at":null,"tle_current":{"epoch":"2026-09-19T20:49:24.527136Z","epoch_age_seconds":69159,"freshness":"FRESH","line1":"1 32711U 08012A   26262.86764499 -.00000017  00000+0  00000+0 0  9993","line2":"2 32711  54.5044 146.1407 0211490 248.5929 109.2080  2.00552843135656","mean_motion":2.00552843,"eccentricity":0.021149,"inclination_deg":54.5044,"raan_deg":146.1407,"arg_perigee_deg":248.5929,"mean_anomaly_deg":109.208,"bstar":0,"rev_number":13565,"period_min":718.01525147165,"perigee_km":19621.416013125,"apogee_km":20744.905791804,"semimajor_km":26561.297902464,"source":"CELESTRAK","updated_at":"2026-09-20T09:00:46.086728Z"}}}